BTK284 VVTS-WIII

Flight info

Callsign BTK284
Flight time N/A
Altitude 33000
Route NIXIV5A/25L NIXIV L643 CN/K0870F350 L642 ESPOB/N0470F350 L642 ENREP/N0471F340 N891 UGPEK/N0470F360 N891 PU/N0471F350 B469 BIDAK
Aircraft B738/M-SDE2E3FGHIRWXY/LB1

Departure

Time N/A
Airport Tan Son Nhat International Airport (VVTS)

Arrival

Time 2026-05-05 16:19
Airport Soekarno-Hatta International Airport (WIII)
Time Latitude Longitude Altitude Speed Heading
2026-05-05 16:00 -4.97177 106.67396 18849 ft 364 kts 154°
2026-05-05 16:01 -4.99484 106.68427 18285 ft 360 kts 154°
2026-05-05 16:01 -5.01751 106.69453 17657 ft 356 kts 154°
2026-05-05 16:01 -5.04001 106.70477 17011 ft 353 kts 154°
2026-05-05 16:01 -5.06222 106.71491 16395 ft 350 kts 154°
2026-05-05 16:02 -5.08426 106.72499 15790 ft 346 kts 154°
2026-05-05 16:02 -5.10609 106.73498 15260 ft 342 kts 154°
2026-05-05 16:02 -5.12742 106.74473 14842 ft 334 kts 154°
2026-05-05 16:02 -5.14836 106.75420 14440 ft 326 kts 156°
2026-05-05 16:03 -5.17055 106.75977 13849 ft 332 kts 168°
2026-05-05 16:03 -5.19353 106.76349 13334 ft 335 kts 169°
2026-05-05 16:03 -5.21652 106.76712 12941 ft 334 kts 169°
2026-05-05 16:03 -5.23936 106.77077 12551 ft 332 kts 169°
2026-05-05 16:04 -5.26211 106.77446 12209 ft 329 kts 169°
2026-05-05 16:04 -5.28459 106.77817 11877 ft 326 kts 169°
2026-05-05 16:04 -5.30659 106.78184 11527 ft 324 kts 168°
2026-05-05 16:04 -5.32878 106.78557 11178 ft 323 kts 168°
2026-05-05 16:05 -5.35082 106.78929 10893 ft 319 kts 168°
2026-05-05 16:05 -5.37265 106.79298 10555 ft 317 kts 168°
2026-05-05 16:05 -5.39408 106.79661 10418 ft 308 kts 168°
2026-05-05 16:05 -5.41501 106.80015 10271 ft 300 kts 168°
2026-05-05 16:06 -5.43530 106.80359 10139 ft 292 kts 168°
2026-05-05 16:06 -5.45508 106.80694 10012 ft 284 kts 168°
2026-05-05 16:06 -5.47450 106.81024 9742 ft 282 kts 168°
2026-05-05 16:06 -5.49380 106.81352 9454 ft 281 kts 168°
2026-05-05 16:07 -5.51303 106.81680 9159 ft 279 kts 168°
2026-05-05 16:07 -5.53214 106.82004 8871 ft 278 kts 168°
2026-05-05 16:07 -5.55118 106.82328 8585 ft 277 kts 168°
2026-05-05 16:07 -5.57016 106.82650 8301 ft 276 kts 168°
2026-05-05 16:08 -5.58903 106.82971 8013 ft 275 kts 168°
2026-05-05 16:08 -5.60782 106.83291 7735 ft 274 kts 168°
2026-05-05 16:08 -5.62658 106.83609 7455 ft 272 kts 168°
2026-05-05 16:08 -5.64523 106.83926 7178 ft 272 kts 168°
2026-05-05 16:09 -5.66386 106.84243 6899 ft 271 kts 168°
2026-05-05 16:09 -5.68248 106.84560 6619 ft 271 kts 168°
2026-05-05 16:09 -5.70105 106.84875 6338 ft 270 kts 168°
2026-05-05 16:09 -5.71961 106.85191 6045 ft 270 kts 168°
2026-05-05 16:10 -5.73810 106.85505 5746 ft 269 kts 168°
2026-05-05 16:10 -5.75653 106.85818 5465 ft 268 kts 168°
2026-05-05 16:10 -5.77487 106.86130 5183 ft 267 kts 168°
2026-05-05 16:10 -5.79310 106.86440 4910 ft 266 kts 168°
2026-05-05 16:11 -5.81131 106.86749 4628 ft 265 kts 168°
2026-05-05 16:11 -5.86390 106.87642 4070 ft 235 kts 168°
2026-05-05 16:12 -5.87943 106.87905 3939 ft 218 kts 167°
2026-05-05 16:12 -5.90730 106.88378 3744 ft 194 kts 167°
2026-05-05 16:13 -5.94859 106.89083 3165 ft 200 kts 167°
2026-05-05 16:13 -5.96239 106.89059 2928 ft 202 kts 201°
2026-05-05 16:13 -5.97367 106.88269 2853 ft 198 kts 218°
2026-05-05 16:14 -5.99511 106.86486 2635 ft 202 kts 217°
2026-05-05 16:14 -6.01623 106.84742 2355 ft 192 kts 217°
2026-05-05 16:15 -6.03677 106.83050 2136 ft 196 kts 217°
2026-05-05 16:15 -6.05282 106.80858 1999 ft 194 kts 243°
2026-05-05 16:16 -6.06312 106.78485 2004 ft 178 kts 247°
2026-05-05 16:16 -6.07242 106.76140 1875 ft 184 kts 247°
2026-05-05 16:17 -6.08139 106.73871 1437 ft 165 kts 247°
2026-05-05 16:17 -6.08564 106.72799 1244 ft 165 kts 248°
2026-05-05 16:18 -6.09406 106.70668 831 ft 161 kts 246°
2026-05-05 16:18 -6.09823 106.69619 617 ft 162 kts 246°
2026-05-05 16:18 -6.10515 106.67876 261 ft 158 kts 248°
2026-05-05 16:19 -6.10912 106.66866 96 ft 158 kts 249°
2026-05-05 16:19 -6.11299 106.65887 39 ft 128 kts 248°
2026-05-05 16:19 -6.11688 106.65034 41 ft 30 kts 219°
2026-05-05 16:20 -6.11840 106.65018 38 ft 10 kts 78°
2026-05-05 16:20 -6.11803 106.65113 38 ft 0 kts 69°